Location: Azul
(36.7830°S, 59.8500°W)
Time: 01:44:50
(UTC-03:00)

HuskySat-1 - Pass Details

Date: 24 October 2021
Orbit: 443 x 456 km, 51.6° (Epoch: 04 December)

Event Time Altitude Azimuth Distance (km) Brightness Sun altitude
Exits shadow 02:52:07 12° 164° (SSE) 1,523 ? -32.7°
Maximum altitude 02:52:11 12° 163° (SSE) 1,523 ? -32.7°
Drops below altitude 10° 02:53:30 10° 141° (SE) 1,614 ? -32.6°
Sets 02:56:56 0° 107° (ESE) 2,479 ? -32.1°
